Regional Weather Roundup
Issued by NWS New Orleans/Baton Rouge, LA

Home | Current Version | Previous Version | Text Only | Print | Product List | Glossary On
Versions: 1 2 3 4 5 6 7 8 9 10 11 12 13 14 15 16 17 18 19 20 21 22 23 24 25 26 27 28 29 30 31 32 33 34 35 36 37 38 39 40 41 42 43 44 45 46 47 48 49 50
987
ASUS44 KLIX 020201
RWRLIX
NEW ORLEANS REGIONAL WEATHER ROUNDUP
NATIONAL WEATHER SERVICE NEW ORLEANS LA
900 PM CDT WED OCT 01 2014

NOTE: "FAIR" INDICATES FEW OR NO CLOUDS BELOW 12,000 FEET WITH NO
      SIGNIFICANT WEATHER AND/OR OBSTRUCTIONS TO VISIBILITY.
      SKY/WX - SKY CONDITION AND SIGNIFICANT WEATHER.
      TMP - AIR TEMPERATURE.     DP    - DEWPOINT TEMPERATURE.
      RH  - RELATIVE HUMIDITY.   PRES  - PRESSURE.
      HI  - HEAT INDEX.          WCI   - WIND CHILL INDEX.

*  THESE STATIONS ARE NOT NWS OR FAA STATIONS AND ARE NOT UNDER
   NWS QUALITY CONTROL.

LAZ038-040-048-061>063-065>067-069-020300-
SOUTHEAST LOUISIANA

CITY           SKY/WX    TMP DP  RH WIND       PRES   REMARKS
N.O. AUDUBON   NOT AVBL
N.O. INTL ARPT PTCLDY    79  75  87 SE6       29.93R
N.O. LAKEFRONT MOCLDY    80  75  84 SE9       29.94R
N.O. DOWNTOWN* CLOUDY    81  73  78 SE6       29.94R
SLIDELL        PTCLDY    78  74  87 CALM      29.94R
BATON ROUGE    PTCLDY    76  74  93 E5        29.92R
BOOTHVILLE     MOCLDY    78  77  96 E3        29.95R
BELLE CHASSE   MOCLDY    80  74  81 SE9       29.93R
BOGALUSA*        N/A     78  72  82 SE6       29.97R
GALLIANO*      NOT AVBL
NEW ROADS*       N/A     77  74  91 SE3       29.91R
GONZALES*        N/A     77  77 100 CALM      29.92R
HAMMOND*       NOT AVBL
HOUMA*         PTCLDY   N/A N/A N/A CALM      29.93R
PORT FOURCHON* CLEAR     81  75  83 SE7       29.97R

$$

MSZ070-080>082-020300-
SOUTHERN MISSISSIPPI

CITY           SKY/WX    TMP DP  RH WIND       PRES   REMARKS
MCCOMB         PTCLDY    76  72  87 SE9       29.94R
GULFPORT       CLEAR     79  74  84 SE9       29.95R
BILOXI         PTCLDY    79  74  84 SE7       29.95R
PASCAGOULA     PTCLDY    73  71  93 CALM      29.96R
STENNIS ARPT*  PTCLDY    79  72  78 SE3       29.95R

$$

COASTAL OBSERVATIONS
LAKE AND NEARSHORE STATIONS

STATION/POSITION TIME  TEMP    WIND        PRES    WAVE
                       AIR SEA DIR/SP/G            HT/PER
                 (UTC) (F)     (DEG/KT/KT) (MB)    (FT/S)
PASCAGOULA       0100   80     150/  5/ 10 1013.9
WAVELAND YACHT   0100   80     140/ 10/ 12 1013.3
GRAND ISLE       0100   80 81  160/  3/  7 1014.2
SOUTHWEST PASS   0100   80 85  160/  7/  8 1014.2
NEW CANAL        0100   80 77  140/  1/  5 1014.0
SHELL BEACH      0100   79 76  120/  9/ 12 1013.5

OFFSHORE STATIONS

STATION/POSITION TIME  TEMP    WIND        PRES    WAVE
                       AIR SEA DIR/SP/G            HT/PER
                 (UTC) (F)     (DEG/KT/KT) (MB)    (FT/S)

$$




USA.gov is the U.S. government's official web portal to all federal, state and local government web resources and services.